Change the Weather History Date:

Friday, January 20, 2012

  Actual Average Record
Temperature  
Mean Temperature 36 °F -  
Max Temperature 43 °F 38 °F 64 °F (2006)
Min Temperature 30 °F 24 °F 14 °F (2008)
Degree Days  
Heating Degree Days 28    
Moisture  
Dew Point 19 °F    
Average Humidity 55    
Maximum Humidity 80    
Minimum Humidity 34    
Precipitation  
Precipitation 0.06 in - - ()
Sea Level Pressure  
Sea Level Pressure 30.22 in    
Wind  
Wind Speed 7 mph (ENE)    
Max Wind Speed 14 mph    
Max Gust Speed -    
Visibility 8 miles    
Events Snow    
Averages and records for this station are not official NWS values.
T = Trace of Precipitation, MM = Missing Value Source: NWS Daily Summary

Daily Weather History Graph

Daily Weather History Graph

Search for Another Location

Airport or City:

Trip Planner

Search our weather history database for the weather conditions in past years. The results will help you decide how hot, cold, wet, or windy it might be!

Date:

Astronomy

Jan. 20, 2012 Rise Set
Actual Time 7:23 AM EST 5:17 PM EST
Civil Twilight 6:54 AM EST 5:46 PM EST
Nautical Twilight 6:22 AM EST 6:18 PM EST
Astronomical Twilight 5:50 AM EST 6:50 PM EST
Moon 4:57 AM EST (1/20) 2:47 PM EST (1/20)
Length of Visible Light 10h 51m
Length of Day
9h 53m
Waning Crescent, 8% of the Moon is Illuminated
Jan 20
Waning Crescent
Jan 23
New
Jan 30
First Quarter
Feb 7
Full
Feb 14
Last Quarter

Hourly Weather History & Observations

Time (EST) Temp. Windchill Dew Point Humidity Pressure Visibility Wind Dir Wind Speed Gust Speed Precip Events Conditions
12:56 AM 43.0 °F 38.2 °F 21.9 °F 43% 30.00 in 10.0 mi West 8.1 mph - N/A   Clear
1:56 AM 39.9 °F 36.7 °F 23.0 °F 51% 30.01 in 10.0 mi North 4.6 mph - N/A   Clear
2:56 AM 34.0 °F - 25.0 °F 70% 30.04 in 10.0 mi Calm Calm - N/A   Clear
3:56 AM 33.1 °F 30.0 °F 23.0 °F 66% 30.04 in 10.0 mi NW 3.5 mph - N/A   Clear
4:56 AM 30.9 °F 26.2 °F 23.0 °F 72% 30.09 in 10.0 mi WNW 4.6 mph - N/A   Clear
5:56 AM 30.9 °F 27.5 °F 24.1 °F 76% 30.13 in 10.0 mi NNW 3.5 mph - N/A   Scattered Clouds
6:56 AM 37.9 °F 30.0 °F 24.1 °F 57% 30.16 in 10.0 mi NNE 12.7 mph - N/A   Mostly Cloudy
7:56 AM 37.0 °F 31.0 °F 19.9 °F 50% 30.20 in 10.0 mi NNE 8.1 mph - N/A   Mostly Cloudy
8:56 AM 37.9 °F 31.5 °F 19.0 °F 47% 30.25 in 10.0 mi NNE 9.2 mph - N/A   Mostly Cloudy
9:56 AM 37.9 °F 29.6 °F 18.0 °F 45% 30.28 in 10.0 mi NNE 13.8 mph - N/A   Overcast
10:56 AM 36.0 °F 27.5 °F 12.9 °F 39% 30.30 in 10.0 mi NNE 12.7 mph - N/A   Overcast
11:56 AM 37.0 °F 30.4 °F 10.9 °F 34% 30.29 in 10.0 mi NNE 9.2 mph - N/A   Mostly Cloudy
12:56 PM 37.0 °F 29.8 °F 10.9 °F 34% 30.27 in 10.0 mi NNE 10.4 mph - N/A   Mostly Cloudy
1:56 PM 37.0 °F 32.4 °F 10.9 °F 34% 30.25 in 10.0 mi ENE 5.8 mph - N/A   Clear
2:56 PM 37.9 °F 33.5 °F 12.0 °F 35% 30.27 in 10.0 mi ENE 5.8 mph - N/A   Clear
3:56 PM 37.9 °F 34.4 °F 12.9 °F 36% 30.27 in 10.0 mi ENE 4.6 mph - N/A   Overcast
4:56 PM 37.0 °F 33.3 °F 12.9 °F 37% 30.27 in 10.0 mi ENE 4.6 mph - N/A   Clear
5:56 PM 37.0 °F 33.3 °F 14.0 °F 39% 30.28 in 10.0 mi NNE 4.6 mph - N/A   Clear
6:56 PM 37.0 °F 31.6 °F 14.0 °F 39% 30.29 in 10.0 mi East 6.9 mph - N/A   Clear
7:56 PM 36.0 °F 30.3 °F 15.1 °F 43% 30.30 in 10.0 mi East 6.9 mph - N/A   Mostly Cloudy
8:56 PM 35.1 °F 26.9 °F 16.0 °F 46% 30.29 in 10.0 mi SE 11.5 mph - N/A   Overcast
9:56 PM 33.1 °F 24.9 °F 19.9 °F 59% 30.28 in 5.0 mi SSE 10.4 mph - 0.00 in Snow Light Snow
10:05 PM 32.0 °F 24.8 °F 19.4 °F 60% 30.28 in 2.5 mi SE 8.1 mph - 0.00 in Snow Light Snow
10:16 PM 30.2 °F 23.4 °F 21.2 °F 69% 30.28 in 1.2 mi SE 6.9 mph - 0.00 in Snow Light Snow
10:28 PM 30.2 °F 23.4 °F 23.0 °F 75% 30.27 in 0.8 mi SSE 6.9 mph - 0.00 in Snow Light Snow
10:56 PM 30.0 °F 26.5 °F 24.1 °F 79% 30.25 in 1.2 mi East 3.5 mph - 0.04 in Snow Light Snow
11:08 PM 30.2 °F 22.6 °F 24.8 °F 80% 30.23 in 2.5 mi ESE 8.1 mph - 0.00 in Snow Light Snow
11:15 PM 30.2 °F 24.3 °F 24.8 °F 80% 30.23 in 2.5 mi East 5.8 mph - 0.00 in Snow Light Snow
11:29 PM 30.2 °F 24.3 °F 24.8 °F 80% 30.23 in 4.0 mi East 5.8 mph - 0.01 in Snow Light Snow
11:56 PM 30.0 °F 24.1 °F 24.1 °F 79% 30.21 in 3.0 mi SE 5.8 mph - 0.02 in Snow Light Snow